Regional Weather Roundup
Issued by NWS Memphis, TN

Home | Current Version | Previous Version | Text Only | Print | Product List | Glossary On
Versions: 1 2 3 4 5 6 7 8 9 10 11 12 13 14 15 16 17 18 19 20 21 22 23 24 25 26 27 28 29 30 31 32 33 34 35 36 37 38 39 40 41 42 43 44 45 46 47 48 49 50
000
ASUS44 KMEG 281310
RWRMEG
MEMPHIS CWA HOURLY WEATHER ROUNDUP
NATIONAL WEATHER SERVICE MEMPHIS TN
800 AM CDT THU MAY 28 2015

...WEST TENNESSEE...

CITY           SKY/WX    TMP DP  RH WIND       PRES   REMARKS
MEMPHIS INTL   CLOUDY    72  66  81 SE3       30.16S
NWS MEMPHIS      N/A     71 N/A N/A MISG        N/A
JACKSON        CLOUDY    66  64  93 E6        30.19  FOG
LEXINGTON      MOSUNNY   66  66 100 CALM      30.20R
DYERSBURG      CLOUDY    66  54  63 CALM      30.18S
PARIS          MOSUNNY   64  64 100 SE5       30.20R


...EASTERN ARKANSAS...

CITY           SKY/WX    TMP DP  RH WIND       PRES   REMARKS
JONESBORO      CLOUDY    69  67  93 SE6       30.15R
WEST MEMPHIS   CLOUDY    70  68  93 SE5       30.15
BATESVILLE     CLOUDY    72  68  88 SE3       30.13S
NEWPORT        CLOUDY    70  70 100 SE7       30.16R
WALNUT RIDGE   MOSUNNY   70  66  88 SE9       30.15S
BLYTHEVILLE    CLOUDY    68  68 100 S5        30.17R
NW BLYTHEVILLE CLOUDY    70  64  83 S6        30.17
STUTTGART      CLOUDY    70  66  88 SE5       30.14R
PINE BLUFF     CLOUDY    70  69  97 CALM      30.13R
MONTICELLO     FOG       68  68 100 E5        30.13S VSB 1/4


...NORTH MISSISSIPPI...

CITY           SKY/WX    TMP DP  RH WIND       PRES   REMARKS
TUPELO         CLOUDY    69  66  90 CALM      30.18R
OXFORD         CLOUDY    68  64  88 SE3       30.18S
OLIVE BRANCH   CLOUDY    70  70 100 CALM      30.17R
TUNICA         CLOUDY    70  68  94 CALM      30.16S
CLARKSDALE     CLOUDY    70  70 100 MISG      30.16R
CORINTH        CLOUDY    66  64  94 CALM      30.19R FOG
GREENWOOD      CLOUDY    69  66  90 VRB3      30.15R
COLUMBUS       CLOUDY    70 N/A N/A SE7       30.17R
STARKVILLE     CLOUDY    68  68 100 SE3       30.17R FOG
GOLDEN TRIANGL CLOUDY    70  64  83 S7        30.16R FOG


...SOUTHEAST MISSOURI...

CITY           SKY/WX    TMP DP  RH WIND       PRES   REMARKS
WEST PLAINS    FOG       68  66  93 SE6       30.16S VSB 1/2
POPLAR BLUFF   CLOUDY    68  67  96 SE5       30.15R FOG
CAPE GIRARDEAU PTSUNNY   70  68  93 SE5       30.16S


...NORTHWEST ALABAMA...

CITY           SKY/WX    TMP DP  RH WIND       PRES   REMARKS
MUSCLE SHOALS  PTSUNNY   68  64  87 CALM      30.21R


...MIDDLE TENNESSEE...

CITY           SKY/WX    TMP DP  RH WIND       PRES   REMARKS
NASHVILLE      LGT RAIN  69  66  90 CALM      30.23R
CLARKSVILLE    FOG       66  66 100 S3        30.22R VSB 1/4
COLUMBIA       MOSUNNY   68  66  94 CALM      30.20R


...WESTERN KENTUCKY...

CITY           SKY/WX    TMP DP  RH WIND       PRES   REMARKS
PADUCAH        MOSUNNY   70  67  90 CALM      30.18R
FORT CAMPBELL  CLOUDY    67  66  96 SE7       30.21R


...CENTRAL ARKANSAS...

CITY           SKY/WX    TMP DP  RH WIND       PRES   REMARKS
LITTLE ROCK    CLOUDY    72  68  87 SE6       30.12S


SKY/WX REPORTED AS FAIR MEANS FEW OR NO CLOUDS BELOW
12 THOUSAND FEET.



USA.gov is the U.S. government's official web portal to all federal, state and local government web resources and services.